Regional Weather Roundup
Issued by NWS

Home | Current Version | Previous Version | Graphics & Text | Print | Product List | Glossary On
Versions: 1 2 3 4 5 6 7 8 9 10 11 12 13 14 15 16 17 18 19 20 21 22 23 24 25 26 27 28 29 30 31 32 33 34 35 36 37 38 39 40 41 42 43 44 45 46 47 48 49 50
000
ASUS43 KOAX 210510
RWRNE

WEATHER ROUNDUP FOR NEBRASKA
NATIONAL WEATHER SERVICE OMAHA NE
1200 AM CDT TUE APR 21 2015

NOTES: SATELLITE DATA IS BEING USED TO AUGMENT CLOUD COVER ABOVE
       12000 FEET.
       "FAIR" INDICATES FEW OR NO CLOUDS BELOW 12,000 FEET WITH NO
       SIGNIFICANT WEATHER AND/OR OBSTRUCTIONS TO VISIBILITY.

  * THESE STATIONS DO NOT REPORT WEATHER SUCH AS RAIN...SNOW OR FOG.

NEZ001>004-019>022-054>056-210600-
NEBRASKA PANHANDLE

CITY           SKY/WX    TMP DP  RH WIND       PRES   REMARKS
SCOTTSBLUFF    CLEAR     40  27  59 W5        29.91R
ALLIANCE       CLEAR     35  24  64 N3        29.90R
CHADRON        CLEAR     30  25  81 CALM      29.92R
KIMBALL        CLEAR     33  29  83 W8        29.92S WCI  27
SIDNEY         CLEAR     31  26  82 W9        29.92S WCI  23
$$

NEZ057>060-069>072-079>082-210600-
SOUTHWEST NEBRASKA

CITY           SKY/WX    TMP DP  RH WIND       PRES   REMARKS
NORTH PLATTE   CLEAR     33  26  75 CALM      29.89R
IMPERIAL       CLEAR     37  28  70 W6        29.90S WCI  32
LEXINGTON      CLEAR     35  31  84 CALM      29.88S
MCCOOK         CLEAR     38  31  76 SW8       29.88F WCI  32
OGALLALA       CLEAR     33  28  85 W6        29.89S WCI  27
$$

NEZ005>010-023>029-035>040-094-210600-
NORTH CENTRAL NEBRASKA

CITY           SKY/WX    TMP DP  RH WIND       PRES   REMARKS
VALENTINE      CLOUDY    41  26  55 W7        29.86S
AINSWORTH      CLOUDY    44  26  48 W6        29.85S
BROKEN BOW     CLOUDY    36  30  79 CALM      29.86S
O`NEILL        CLOUDY    43  24  45 W7        29.82R
ORD            CLOUDY    44  27  51 W8        29.84S
THEDFORD       MOCLDY    37  28  69 W6        29.89R WCI  32
$$

NEZ041-046>049-061>064-073>077-083>087-210600-
SOUTH CENTRAL NEBRASKA

CITY           SKY/WX    TMP DP  RH WIND       PRES   REMARKS
GRAND ISLAND   CLOUDY    44  30  57 W8        29.86S
AURORA         CLOUDY    44  31  60 W8        29.85S
HASTINGS       CLEAR     41  28  60 W6        29.86S
HEBRON         CLEAR     37  28  70 W5        29.87S WCI  33
HOLDREGE       CLEAR     37  32  79 CALM      29.88S
KEARNEY *      CLEAR     43  27  52 W7        29.88S
YORK           CLOUDY    43  32  65 W8        29.85S
$$

NEZ011>018-030>034-042>045-210600-
NORTHEAST NEBRASKA

CITY           SKY/WX    TMP DP  RH WIND       PRES   REMARKS
NORFOLK        CLOUDY    42  21  43 W12       29.80S
ALBION         PTCLDY    42  22  45 NW3       29.83R
BLAIR          CLEAR     43  18  37 W7        29.79S
COLUMBUS *     PTCLDY    39  21  48 NW5       29.84S
FREMONT        CLEAR     37  28  71 W8        29.81S WCI  30
TEKAMAH        CLEAR     40  23  50 W13       29.78S WCI  32
WAYNE          CLOUDY    41  14  33 W9        29.78F
$$

NEZ050>053-065>068-078-088>093-210600-
SOUTHEAST NEBRASKA

CITY           SKY/WX    TMP DP  RH WIND       PRES   REMARKS
LINCOLN        MOCLDY    43  28  55 CALM      29.84S
OMAHA EPPLEY   CLEAR     47  19  33 W12       29.79S
BEATRICE       PTCLDY    39  30  70 W5        29.85S
FALLS CITY     CLEAR     43  29  57 W3        29.83S
NEBRASKA CITY  CLEAR     41  23  48 W9        29.82S
PLATTSMOUTH    CLEAR     41  24  50 W8        29.81S
$$

NEZ044-045-051>053-067-210600-
OMAHA AREA

CITY           SKY/WX    TMP DP  RH WIND       PRES   REMARKS
OMAHA EPPLEY   CLEAR     47  19  33 W12       29.79S
BLAIR          CLEAR     43  18  37 W7        29.79S
FREMONT        CLEAR     37  28  71 W8        29.81S WCI  30
MILLARD        CLEAR     44  26  47 CALM      29.81S
OFFUTT AFB     CLEAR     40  24  54 W7        29.79S WCI  35
PLATTSMOUTH    CLEAR     41  24  50 W8        29.81S
WAHOO          FAIR      41  26  53 W8        29.81S
$$


USA.gov is the U.S. government's official web portal to all federal, state and local government web resources and services.